This is the latest recevied weather packets stored in our database for station/object K3HM. If no packets are shown the sender has not sent any weather packets the latest 10 day(s).
| Time | Temp. | Humidity | Pressure | Rain* | Wind** | Luminosity | Snow |
|---|---|---|---|---|---|---|---|
| 1777556957 | 10° C | 72% | 1010.8 hPa | 0 mm | - | 271 W/m² | - |
| 1777556653 | 9.44° C | 75% | 1010.8 hPa | 0 mm | - | 482 W/m² | - |
| 1777556349 | 9.44° C | 76% | 1010.7 hPa | 0 mm | - | 459 W/m² | - |
| 1777556045 | 9.44° C | 76% | 1010.8 hPa | 0 mm | - | 444 W/m² | - |
| 1777555745 | 8.89° C | 76% | 1010.8 hPa | 0 mm | - | 458 W/m² | - |
| 1777555441 | 8.33° C | 84% | 1010.8 hPa | 0 mm | - | 408 W/m² | - |
| 1777555137 | 7.22° C | 85% | 1010.7 hPa | 0 mm | - | 94 W/m² | - |
| 1777554835 | 7.22° C | 84% | 1010.7 hPa | 0 mm | - | 92 W/m² | - |
| 1777554532 | 7.78° C | 84% | 1010.4 hPa | 0 mm | - | 65 W/m² | - |
| 1777554229 | 7.78° C | 86% | 1010.7 hPa | 0 mm | - | 102 W/m² | - |
| 1777553926 | 7.22° C | 87% | 1010.3 hPa | 0 mm | - | 384 W/m² | - |
| 1777553622 | 7.22° C | 88% | 1010.5 hPa | 0 mm | - | 85 W/m² | - |
| 1777553318 | 7.22° C | 90% | 1010.7 hPa | 0 mm | - | 54 W/m² | - |
| 1777553014 | 7.78° C | 89% | 1010.5 hPa | 0 mm | - | 33 W/m² | - |
| 1777552709 | 7.78° C | 89% | 1010.3 hPa | 0 mm | - | 63 W/m² | - |
| 1777552406 | 7.78° C | 90% | 1010.4 hPa | 0 mm | - | 127 W/m² | - |
| 1777552102 | 7.78° C | 91% | 1010.4 hPa | 0 mm | - | 90 W/m² | - |
| 1777551800 | 7.78° C | 90% | 1010.5 hPa | 0 mm | - | 102 W/m² | - |
| 1777551497 | 7.78° C | 91% | 1010.3 hPa | 0 mm | - | 150 W/m² | - |
| 1777551193 | 7.78° C | 92% | 1010.1 hPa | 0 mm | - | 80 W/m² | - |
| 1777550891 | 6.67° C | 94% | 1010.2 hPa | 0 mm | - | 177 W/m² | - |
| 1777550587 | 6.67° C | 94% | 1010.3 hPa | 0 mm | - | 98 W/m² | - |
| 1777550283 | 6.67° C | 95% | 1010.4 hPa | 0 mm | - | 115 W/m² | - |
| 1777549980 | 6.67° C | 95% | 1010.2 hPa | 0 mm | - | 68 W/m² | - |
| 1777549676 | 6.67° C | 95% | 1010.2 hPa | 0 mm | - | 47 W/m² | - |
* Rain latest hour (hover to see other rain measurements)
** Current wind speed in m/s (hover to see current wind gust speed)